Вернуться в каталог

NanoDragon

АктивенНаукаSSO
NORAD 49398·PAYLOAD·🇯🇵 Japan

Запущен Nov 9, 2021 с Uchinoura Space Center

Loading…

Ближайшие Пролёты (ближайшие 24 часа)

TLE

СвежийSource: Space-Track

Эпоха: Sep 14, 2026, 08:58 UTC

1 49398U 21102D   26257.37401938  .00007741  00000-0  25130-3 0  9999
2 49398  97.3115 298.4370 0006982 239.3899 120.6655 15.32199973267674

Отслеживайте NanoDragon в реальном времени с AllMySat

Download on the App Store